Storm Lake
Sunday 2:35 PM
Temperature70° (70°/55°)
Dew Point52°
Relative Humidity53
%
Visibility10
mi
Pressure1021.0
mb
Wind DirectionSSE
160°
Wind Speed26
mph
Precipitation Today0.00"

Last 30 Observations

Time PresWx Temp DP Feels RH% Vsby Pressure Ceiling Direction Speed 1h Precip
2:35 PM 70° 52° 53
%
10
mi
SSE
160°
26
mph
0.00"
2:15 PM 70° 52° 53
%
10
mi
1021.7
mb
SSE
160°
24
mph
0.00"
1:55 PM 68° 50° 53
%
10
mi
1022.0
mb
SSE
160°
22
mph
0.00"
1:35 PM 68° 52° 56
%
10
mi
1022.4
mb
SSE
150°
23
mph
0.00"
1:15 PM 66° 54° 64
%
10
mi
1022.7
mb
SSE
160°
22
mph
0.00"
12:55 PM 1023.0
mb
SSE
150°
22
mph
0.00"
12:35 PM 64° 54° 68
%
10
mi
1023.4
mb
SSE
150°
16
mph
0.00"
12:15 PM 64° 52° 64
%
10
mi
1023.4
mb
4,300
ft
SSE
150°
18
mph
0.00"
11:55 AM 64° 54° 68
%
10
mi
1023.7
mb
4,400
ft
SSE
150°
14
mph
0.00"
11:35 AM 64° 52° 64
%
10
mi
1023.7
mb
4,800
ft
SE
140°
15
mph
0.00"
11:15 AM 64° 52° 64
%
10
mi
1023.7
mb
5,000
ft
SE
140°
16
mph
0.00"
10:55 AM 64° 52° 64
%
10
mi
1023.7
mb
5,000
ft
SE
140°
16
mph
0.00"
10:35 AM 64° 54° 68
%
10
mi
1024.1
mb
5,000
ft
SE
140°
14
mph
0.00"
10:15 AM 64° 52° 64
%
10
mi
1024.1
mb
5,500
ft
SE
140°
16
mph
0.00"
9:55 AM 64° 52° 64
%
10
mi
1024.1
mb
5,500
ft
SE
140°
17
mph
0.00"
9:35 AM 64° 52° 64
%
10
mi
1024.1
mb
SE
140°
13
mph
0.00"
9:15 AM 64° 52° 64
%
10
mi
1024.1
mb
SE
140°
15
mph
0.00"
8:55 AM 63° 54° 72
%
10
mi
1024.1
mb
SE
140°
14
mph
0.00"
8:35 AM 63° 54° 72
%
10
mi
1024.1
mb
SE
130°
11
mph
0.00"
8:15 AM 61° 55° 82
%
10
mi
1024.1
mb
6,000
ft
ESE
120°
9
mph
0.00"
7:55 AM 61° 54° 77
%
10
mi
1024.1
mb
ESE
120°
13
mph
0.00"
7:35 AM 59° 54° 82
%
10
mi
1024.1
mb
ESE
120°
11
mph
0.00"
7:15 AM 59° 54° 82
%
10
mi
1024.1
mb
6,000
ft
ESE
110°
8
mph
0.00"
6:55 AM 59° 54° 82
%
10
mi
1024.1
mb
6,000
ft
E
90°
9
mph
0.00"
6:35 AM 59° 52° 77
%
10
mi
1023.4
mb
6,000
ft
ESE
110°
6
mph
0.00"
6:15 AM 59° 55° 88
%
10
mi
1023.4
mb
6,000
ft
ESE
110°
3
mph
0.00"
5:55 AM 59° 54° 82
%
10
mi
1023.0
mb
6,000
ft
Calm 0.00"
5:35 AM 59° 54° 82
%
10
mi
1022.7
mb
6,000
ft
Calm 0.00"
5:15 AM 57° 55° 94
%
10
mi
1022.7
mb
6,000
ft
E
90°
3
mph
0.00"
4:55 AM 57° 55° 94
%
10
mi
1022.7
mb
6,000
ft
Calm 0.00"